| time (UTC) | temp F | wind direction | speed knots | gust knots | rain 1hr in | rain 24hr in | rain mn in | humidity % | barometer mb |
| 20260506025602 | 40 | 182 | 0.0 | 0.0 | 0.00 | 0.00 | 0.00 | 100 | 1002.8 |
| 20260506025102 | 41 | 182 | 0.0 | 0.9 | 0.00 | 0.00 | 0.00 | 100 | 1002.8 |
| 20260506024602 | 40 | 154 | 0.0 | 0.0 | 0.00 | 0.00 | 0.00 | 100 | 1002.8 |
| 20260506024102 | 38 | 154 | 0.0 | 0.0 | 0.00 | 0.00 | 0.00 | 100 | 1002.8 |
| 20260506023602 | 39 | 154 | 0.0 | 0.0 | 0.00 | 0.00 | 0.00 | 100 | 1002.8 |
| 20260506023102 | 39 | 154 | 0.0 | 3.5 | 0.00 | 0.00 | 0.00 | 100 | 1002.8 |
| 20260506022602 | 40 | 165 | 0.0 | 0.0 | 0.00 | 0.00 | 0.00 | 100 | 1002.8 |
| 20260506022102 | 38 | 165 | 0.0 | 0.0 | 0.00 | 0.00 | 0.00 | 100 | 1002.7 |
| 20260506021602 | 37 | 165 | 0.0 | 0.0 | 0.00 | 0.00 | 0.00 | 100 | 1002.7 |
| 20260506021102 | 37 | 165 | 0.0 | 0.0 | 0.00 | 0.00 | 0.00 | 100 | 1002.7 |
| 20260506020602 | 35 | 165 | 0.0 | 0.0 | 0.00 | 0.00 | 0.00 | 100 | 1002.7 |
| 20260506015602 | 34 | 165 | 0.0 | 0.0 | 0.00 | 0.00 | 0.00 | 100 | 1002.6 |
| 20260506015102 | 34 | 165 | 0.0 | 0.0 | 0.00 | 0.00 | 0.00 | 100 | 1002.5 |
| 20260506014602 | 34 | 165 | 0.0 | 0.0 | 0.00 | 0.00 | 0.00 | 100 | 1002.5 |
| 20260506014102 | 34 | 165 | 0.0 | 0.0 | 0.00 | 0.00 | 0.00 | 100 | 1002.4 |
| 20260506013602 | 33 | 165 | 0.0 | 0.0 | 0.00 | 0.00 | 0.00 | 100 | 1002.4 |
| 20260506013102 | 33 | 165 | 0.0 | 0.0 | 0.00 | 0.00 | 0.00 | 100 | 1002.3 |
| 20260506012602 | 34 | 165 | 0.0 | 0.0 | 0.00 | 0.00 | 0.00 | 100 | 1002.3 |
| 20260506012102 | 34 | 165 | 0.0 | 0.0 | 0.00 | 0.00 | 0.00 | 100 | 1002.3 |
| 20260506011602 | 34 | 165 | 0.0 | 0.0 | 0.00 | 0.00 | 0.00 | 100 | 1002.3 |
| 20260506011102 | 34 | 165 | 0.0 | 0.0 | 0.00 | 0.00 | 0.00 | 100 | 1002.3 |
| 20260506010602 | 34 | 165 | 0.0 | 0.0 | 0.00 | 0.00 | 0.00 | 100 | 1002.4 |
| 20260506005602 | 33 | 165 | 0.0 | 0.0 | 0.00 | 0.00 | 0.00 | 100 | 1002.3 |
| 20260506005102 | 32 | 165 | 0.0 | 0.0 | 0.00 | 0.00 | 0.00 | 100 | 1002.3 |
| 20260506004602 | 32 | 165 | 0.0 | 0.0 | 0.00 | 0.00 | 0.00 | 100 | 1002.3 |
| 20260506004102 | 32 | 165 | 0.0 | 0.0 | 0.00 | 0.00 | 0.00 | 100 | 1002.2 |
| 20260506003602 | 32 | 165 | 0.0 | 0.0 | 0.00 | 0.00 | 0.00 | 100 | 1002.2 |
| 20260506003102 | 32 | 165 | 0.0 | 0.0 | 0.00 | 0.00 | 0.00 | 100 | 1002.2 |
| 20260506002602 | 32 | 165 | 0.0 | 0.0 | 0.00 | 0.00 | 0.00 | 100 | 1002.2 |
| 20260506002102 | 32 | 165 | 0.0 | 0.0 | 0.00 | 0.00 | 0.00 | 100 | 1002.2 |
| 20260506001602 | 32 | 165 | 0.0 | 0.0 | 0.00 | 0.00 | 0.00 | 100 | 1002.2 |
| 20260506001102 | 32 | 165 | 0.0 | 0.0 | 0.00 | 0.00 | 0.00 | 100 | 1002.2 |
| 20260506000602 | 32 | 165 | 0.0 | 0.0 | 0.00 | 0.00 | 0.00 | 100 | 1002.2 |
| 20260505235602 | 32 | 165 | 0.0 | 0.0 | 0.00 | 0.00 | 0.00 | 100 | 1002.2 |
| 20260505235102 | 33 | 165 | 0.0 | 0.0 | 0.00 | 0.00 | 0.00 | 100 | 1002.1 |
| 20260505234602 | 33 | 165 | 0.0 | 0.0 | 0.00 | 0.00 | 0.00 | 100 | 1002.1 |
| 20260505234102 | 33 | 165 | 0.0 | 0.0 | 0.00 | 0.00 | 0.00 | 100 | 1002.1 |
| 20260505233602 | 33 | 165 | 0.0 | 0.0 | 0.00 | 0.00 | 0.00 | 100 | 1002.1 |
| 20260505233102 | 34 | 165 | 0.0 | 0.0 | 0.00 | 0.00 | 0.00 | 100 | 1002.1 |
| 20260505232602 | 34 | 165 | 0.0 | 3.5 | 0.00 | 0.00 | 0.00 | 100 | 1002.1 |
| 20260505232102 | 34 | 172 | 0.0 | 0.0 | 0.00 | 0.00 | 0.00 | 100 | 1002.1 |
| 20260505231602 | 35 | 172 | 0.0 | 0.0 | 0.00 | 0.00 | 0.00 | 100 | 1002.1 |
| 20260505231103 | 35 | 172 | 0.0 | 0.0 | 0.00 | 0.00 | 0.00 | 100 | 1002.1 |
| 20260505230603 | 35 | 172 | 0.0 | 0.0 | 0.00 | 0.00 | 0.00 | 100 | 1002.0 |
| 20260505225603 | 36 | 172 | 0.0 | 0.0 | 0.00 | 0.00 | 0.00 | 100 | 1002.1 |
| 20260505225103 | 36 | 172 | 0.0 | 0.0 | 0.00 | 0.00 | 0.00 | 100 | 1002.0 |
| 20260505224603 | 36 | 172 | 0.0 | 0.0 | 0.00 | 0.00 | 0.00 | 100 | 1002.0 |
| 20260505224103 | 36 | 172 | 0.0 | 0.0 | 0.00 | 0.00 | 0.00 | 100 | 1002.0 |
| 20260505223603 | 36 | 172 | 0.0 | 0.0 | 0.00 | 0.00 | 0.00 | 100 | 1002.0 |
| 20260505223103 | 36 | 172 | 0.0 | 0.0 | 0.00 | 0.00 | 0.00 | 100 | 1002.0 |
| 20260505222603 | 36 | 172 | 0.0 | 0.0 | 0.00 | 0.00 | 0.00 | 100 | 1002.0 |
| 20260505222103 | 36 | 172 | 0.0 | 0.0 | 0.00 | 0.00 | 0.00 | 100 | 1001.9 |
| 20260505221603 | 36 | 172 | 0.0 | 5.2 | 0.00 | 0.00 | 0.00 | 100 | 1001.8 |
| 20260505221103 | 36 | 126 | 0.0 | 5.2 | 0.00 | 0.00 | 0.00 | 100 | 1001.9 |
| 20260505220603 | 36 | 156 | 0.9 | 6.1 | 0.00 | 0.00 | 0.00 | 100 | 1001.9 |
| 20260505215603 | 37 | 153 | 0.9 | 7.0 | 0.00 | 0.00 | 0.00 | 100 | 1001.9 |
| 20260505215103 | 37 | 135 | 1.7 | 6.1 | 0.00 | 0.00 | 0.00 | 100 | 1001.9 |
| 20260505214603 | 37 | 88 | 0.9 | 5.2 | 0.00 | 0.00 | 0.00 | 100 | 1001.9 |
| 20260505214103 | 37 | 108 | 1.7 | 6.1 | 0.00 | 0.00 | 0.00 | 100 | 1001.9 |
| 20260505213603 | 37 | 125 | 0.0 | 6.1 | 0.00 | 0.00 | 0.00 | 100 | 1001.8 |
| 20260505213103 | 37 | 57 | 4.3 | 6.1 | 0.00 | 0.00 | 0.00 | 100 | 1001.8 |
| 20260505212603 | 37 | 133 | 4.3 | 6.1 | 0.00 | 0.00 | 0.00 | 100 | 1001.8 |
| 20260505212103 | 37 | 147 | 0.0 | 5.2 | 0.00 | 0.00 | 0.00 | 100 | 1001.9 |
| 20260505211603 | 37 | 133 | 0.9 | 7.0 | 0.00 | 0.00 | 0.00 | 100 | 1001.9 |
| 20260505211103 | 37 | 97 | 0.0 | 7.0 | 0.00 | 0.00 | 0.00 | 100 | 1001.9 |
| 20260505210603 | 38 | 105 | 7.0 | 8.7 | 0.00 | 0.00 | 0.00 | 100 | 1002.0 |
| 20260505210103 | 38 | 123 | 5.2 | 7.8 | 0.00 | 0.00 | 0.00 | 100 | 1002.0 |
| 20260505205603 | 38 | 123 | 7.0 | 9.6 | 0.00 | 0.00 | 0.00 | 100 | 1002.0 |
| 20260505205103 | 38 | 119 | 5.2 | 9.6 | 0.00 | 0.00 | 0.00 | 100 | 1002.0 |
| 20260505204603 | 38 | 146 | 4.3 | 7.8 | 0.00 | 0.00 | 0.00 | 100 | 1002.1 |
| 20260505204103 | 38 | 125 | 3.5 | 7.8 | 0.00 | 0.00 | 0.00 | 100 | 1002.2 |
| 20260505203603 | 38 | 119 | 6.1 | 8.7 | 0.00 | 0.00 | 0.00 | 100 | 1002.2 |
| 20260505203103 | 38 | 109 | 7.8 | 8.7 | 0.00 | 0.00 | 0.00 | 100 | 1002.2 |
| 20260505202603 | 38 | 133 | 3.5 | 8.7 | 0.00 | 0.00 | 0.00 | 100 | 1002.2 |
| 20260505202103 | 39 | 111 | 5.2 | 7.8 | 0.00 | 0.00 | 0.00 | 100 | 1002.1 |
| 20260505201603 | 39 | 108 | 7.8 | 9.6 | 0.00 | 0.00 | 0.00 | 100 | 1002.2 |
| 20260505201103 | 39 | 91 | 3.5 | 7.0 | 0.00 | 0.00 | 0.00 | 100 | 1002.1 |
| 20260505200603 | 39 | 91 | 6.1 | 6.1 | 0.00 | 0.00 | 0.00 | 100 | 1002.1 |
| 20260505200103 | 39 | 90 | 1.7 | 5.2 | 0.00 | 0.00 | 0.00 | 100 | 1002.1 |
| 20260505195603 | 39 | 151 | 2.6 | 4.3 | 0.00 | 0.00 | 0.00 | 100 | 1002.0 |
| 20260505195103 | 39 | 132 | 3.5 | 3.5 | 0.00 | 0.00 | 0.00 | 100 | 1002.1 |
| 20260505194603 | 40 | 127 | 0.0 | 5.2 | 0.00 | 0.00 | 0.00 | 100 | 1002.0 |
| 20260505194103 | 40 | 147 | 3.5 | 5.2 | 0.00 | 0.00 | 0.00 | 100 | 1002.0 |
| 20260505193603 | 40 | 160 | 0.9 | 4.3 | 0.00 | 0.00 | 0.00 | 100 | 1002.0 |
| 20260505193103 | 40 | 112 | 3.5 | 6.1 | 0.00 | 0.00 | 0.00 | 100 | 1002.0 |
| 20260505192603 | 40 | 113 | 3.5 | 7.0 | 0.00 | 0.00 | 0.00 | 100 | 1002.0 |
| 20260505192103 | 41 | 7 | 0.0 | 0.0 | 0.00 | 0.00 | 0.00 | 100 | 1002.0 |
| 20260505191603 | 41 | 7 | 0.0 | 0.0 | 0.00 | 0.00 | 0.00 | 100 | 1001.9 |
| 20260505191103 | 41 | 7 | 0.0 | 0.0 | 0.00 | 0.00 | 0.00 | 100 | 1001.9 |
| 20260505190603 | 41 | 7 | 0.0 | 0.0 | 0.00 | 0.00 | 0.00 | 100 | 1001.9 |
| 20260505190103 | 41 | 7 | 0.0 | 0.0 | 0.00 | 0.00 | 0.00 | 100 | 1001.9 |
| 20260505185603 | 41 | 7 | 0.0 | 0.0 | 0.00 | 0.00 | 0.00 | 100 | 1001.8 |
| 20260505185103 | 41 | 7 | 0.0 | 0.0 | 0.00 | 0.00 | 0.00 | 100 | 1001.8 |
| 20260505184603 | 41 | 7 | 0.0 | 0.0 | 0.00 | 0.00 | 0.00 | 100 | 1001.8 |
| 20260505184103 | 41 | 7 | 0.0 | 0.0 | 0.00 | 0.00 | 0.00 | 100 | 1001.7 |
| 20260505183603 | 41 | 7 | 0.0 | 3.5 | 0.00 | 0.00 | 0.00 | 100 | 1001.8 |
| 20260505183104 | 42 | 33 | 0.0 | 3.5 | 0.00 | 0.00 | 0.00 | 100 | 1001.7 |
| 20260505182603 | 42 | 16 | 0.9 | 6.1 | 0.00 | 0.00 | 0.00 | 100 | 1001.7 |
| 20260505182103 | 42 | 18 | 0.0 | 6.1 | 0.00 | 0.00 | 0.00 | 100 | 1001.6 |
| 20260505181604 | 42 | 28 | 6.1 | 6.1 | 0.00 | 0.00 | 0.00 | 100 | 1001.7 |
| 20260505181104 | 43 | 23 | 4.3 | 7.0 | 0.00 | 0.00 | 0.00 | 100 | 1001.6 |
| 20260505180604 | 42 | 14 | 4.3 | 5.2 | 0.00 | 0.00 | 0.00 | 100 | 1001.6 |
| 20260505180104 | 42 | 357 | 0.9 | 5.2 | 0.00 | 0.00 | 0.00 | 100 | 1001.5 |
| 20260505175604 | 42 | 16 | 5.2 | 5.2 | 0.00 | 0.00 | 0.00 | 100 | 1001.4 |
| 20260505175104 | 42 | 12 | 4.3 | 5.2 | 0.00 | 0.00 | 0.00 | 100 | 1001.4 |
| 20260505174604 | 42 | 18 | 0.9 | 7.0 | 0.00 | 0.00 | 0.00 | 100 | 1001.4 |
| 20260505174104 | 42 | 2 | 3.5 | 7.0 | 0.00 | 0.00 | 0.00 | 100 | 1001.3 |
| 20260505173604 | 42 | 9 | 6.1 | 7.8 | 0.00 | 0.00 | 0.00 | 100 | 1001.3 |
| 20260505173104 | 42 | 16 | 4.3 | 7.0 | 0.00 | 0.00 | 0.00 | 100 | 1001.3 |
| 20260505172604 | 42 | 352 | 6.1 | 7.8 | 0.00 | 0.00 | 0.00 | 100 | 1001.3 |
| 20260505172104 | 42 | 351 | 7.0 | 9.6 | 0.00 | 0.00 | 0.00 | 100 | 1001.3 |
| 20260505171604 | 42 | 4 | 4.3 | 8.7 | 0.00 | 0.00 | 0.00 | 100 | 1001.2 |
| 20260505171104 | 42 | 25 | 5.2 | 8.7 | 0.00 | 0.00 | 0.00 | 100 | 1001.2 |
| 20260505170604 | 42 | 15 | 6.1 | 8.7 | 0.00 | 0.00 | 0.00 | 100 | 1001.2 |
| 20260505170104 | 42 | 7 | 7.0 | 9.6 | 0.00 | 0.00 | 0.00 | 100 | 1001.1 |
| 20260505165604 | 42 | 15 | 7.8 | 11.3 | 0.00 | 0.00 | 0.00 | 100 | 1001.1 |
| 20260505165104 | 42 | 12 | 8.7 | 12.2 | 0.00 | 0.00 | 0.00 | 100 | 1001.0 |
| 20260505164604 | 42 | 345 | 8.7 | 12.2 | 0.00 | 0.00 | 0.00 | 100 | 1000.9 |
| 20260505164104 | 42 | 9 | 8.7 | 12.2 | 0.00 | 0.00 | 0.00 | 100 | 1000.9 |
| 20260505163604 | 42 | 345 | 12.2 | 13.0 | 0.00 | 0.00 | 0.00 | 100 | 1000.8 |
| 20260505163104 | 42 | 354 | 9.6 | 11.3 | 0.00 | 0.00 | 0.00 | 100 | 1000.7 |
| 20260505162604 | 42 | 345 | 9.6 | 12.2 | 0.00 | 0.00 | 0.00 | 100 | 1000.7 |
| 20260505162104 | 42 | 351 | 9.6 | 11.3 | 0.00 | 0.00 | 0.00 | 100 | 1000.7 |
| 20260505161604 | 42 | 340 | 10.4 | 11.3 | 0.00 | 0.00 | 0.00 | 100 | 1000.7 |
| 20260505161104 | 41 | 348 | 8.7 | 11.3 | 0.00 | 0.00 | 0.00 | 100 | 1000.6 |
| 20260505160604 | 41 | 345 | 7.8 | 10.4 | 0.00 | 0.00 | 0.00 | 100 | 1000.6 |
| 20260505160104 | 41 | 351 | 7.8 | 10.4 | 0.00 | 0.00 | 0.00 | 100 | 1000.6 |
| 20260505153104 | 42 | 337 | 7.0 | 10.4 | 0.00 | 0.00 | 0.00 | 100 | 1000.5 |
| 20260505152604 | 41 | 341 | 10.4 | 11.3 | 0.00 | 0.00 | 0.00 | 100 | 1000.5 |
| 20260505152104 | 42 | 340 | 8.7 | 9.6 | 0.00 | 0.00 | 0.00 | 100 | 1000.5 |
| 20260505151604 | 42 | 326 | 8.7 | 9.6 | 0.00 | 0.00 | 0.00 | 100 | 1000.5 |
| 20260505151104 | 42 | 345 | 8.7 | 10.4 | 0.00 | 0.00 | 0.00 | 100 | 1000.5 |
| 20260505150604 | 42 | 327 | 8.7 | 10.4 | 0.00 | 0.00 | 0.00 | 100 | 1000.5 |
| 20260505150104 | 42 | 329 | 9.6 | 10.4 | 0.00 | 0.00 | 0.00 | 100 | 1000.4 |
| 20260505140604 | 42 | 345 | 8.7 | 9.6 | 0.00 | 0.00 | 0.00 | 100 | 1000.2 |
| 20260505140104 | 42 | 352 | 6.1 | 9.6 | 0.00 | 0.00 | 0.00 | 100 | 1000.2 |
| 20260505130105 | 42 | 337 | 9.6 | 11.3 | 0.00 | 0.00 | 0.00 | 100 | 999.9 |
| 20260505124605 | 42 | 350 | 7.8 | 10.4 | 0.00 | 0.00 | 0.00 | 100 | 999.8 |
| 20260505124105 | 42 | 341 | 10.4 | 10.4 | 0.00 | 0.00 | 0.00 | 100 | 999.7 |
| 20260505123605 | 42 | 340 | 8.7 | 11.3 | 0.00 | 0.00 | 0.00 | 100 | 999.7 |
| 20260505123105 | 42 | 340 | 8.7 | 11.3 | 0.00 | 0.00 | 0.00 | 100 | 999.6 |
| 20260505122605 | 42 | 345 | 9.6 | 10.4 | 0.00 | 0.00 | 0.00 | 100 | 999.6 |
| 20260505122105 | 42 | 350 | 9.6 | 11.3 | 0.00 | 0.00 | 0.00 | 100 | 999.4 |
| 20260505121605 | 41 | 343 | 9.6 | 10.4 | 0.00 | 0.00 | 0.00 | 100 | 999.4 |
| 20260505121105 | 42 | 348 | 8.7 | 10.4 | 0.00 | 0.00 | 0.00 | 100 | 999.4 |
| 20260505120605 | 41 | 330 | 7.8 | 10.4 | 0.00 | 0.00 | 0.00 | 100 | 999.4 |
| 20260505120105 | 42 | 317 | 7.0 | 9.6 | 0.00 | 0.00 | 0.00 | 100 | 999.3 |
| 20260505115605 | 41 | 333 | 7.0 | 9.6 | 0.00 | 0.00 | 0.00 | 100 | 999.2 |
| 20260505115105 | 41 | 0 | 6.1 | 10.4 | 0.00 | 0.00 | 0.00 | 100 | 999.1 |
| 20260505114605 | 41 | 333 | 7.8 | 10.4 | 0.00 | 0.00 | 0.00 | 100 | 999.1 |
| 20260505114105 | 41 | 333 | 9.6 | 9.6 | 0.00 | 0.00 | 0.00 | 100 | 999.0 |
| 20260505113605 | 42 | 344 | 7.8 | 10.4 | 0.00 | 0.00 | 0.00 | 100 | 999.0 |
| 20260505113105 | 41 | 347 | 7.8 | 9.6 | 0.00 | 0.00 | 0.00 | 100 | 998.9 |
| 20260505112605 | 41 | 350 | 7.8 | 9.6 | 0.00 | 0.00 | 0.00 | 100 | 999.0 |
| 20260505112105 | 41 | 341 | 7.0 | 9.6 | 0.00 | 0.00 | 0.00 | 100 | 998.9 |
| 20260505111605 | 41 | 341 | 8.7 | 10.4 | 0.00 | 0.00 | 0.00 | 100 | 998.9 |
| 20260505111105 | 41 | 340 | 9.6 | 10.4 | 0.00 | 0.00 | 0.00 | 100 | 998.8 |
| 20260505110605 | 42 | 352 | 7.0 | 9.6 | 0.00 | 0.00 | 0.00 | 100 | 998.8 |
| 20260505110105 | 42 | 344 | 8.7 | 10.4 | 0.00 | 0.00 | 0.00 | 100 | 998.8 |
| 20260505102105 | 42 | 4 | 6.1 | 12.2 | 0.00 | 0.00 | 0.00 | 100 | 998.4 |
| 20260505101605 | 42 | 347 | 10.4 | 11.3 | 0.00 | 0.00 | 0.00 | 100 | 998.4 |
| 20260505101105 | 41 | 351 | 9.6 | 12.2 | 0.00 | 0.00 | 0.00 | 100 | 998.3 |
| 20260505100605 | 42 | 348 | 9.6 | 9.6 | 0.00 | 0.00 | 0.00 | 100 | 998.3 |
| 20260505100105 | 42 | 344 | 7.8 | 7.8 | 0.00 | 0.00 | 0.00 | 100 | 998.2 |
| 20260505095605 | 42 | 343 | 7.0 | 10.4 | 0.00 | 0.00 | 0.00 | 100 | 998.2 |
| 20260505095105 | 42 | 347 | 7.0 | 8.7 | 0.00 | 0.00 | 0.00 | 100 | 998.1 |
| 20260505094605 | 42 | 8 | 6.1 | 7.8 | 0.00 | 0.00 | 0.00 | 100 | 998.1 |
| 20260505094105 | 42 | 343 | 6.1 | 8.7 | 0.00 | 0.00 | 0.00 | 100 | 998.1 |
| 20260505093605 | 41 | 345 | 7.8 | 8.7 | 0.00 | 0.00 | 0.00 | 100 | 998.1 |
| 20260505093105 | 41 | 345 | 7.8 | 9.6 | 0.00 | 0.00 | 0.00 | 100 | 998.1 |
| 20260505092605 | 41 | 350 | 7.8 | 10.4 | 0.00 | 0.00 | 0.00 | 100 | 998.1 |
| 20260505092105 | 41 | 345 | 8.7 | 10.4 | 0.00 | 0.00 | 0.00 | 100 | 998.2 |
| 20260505091605 | 41 | 4 | 7.8 | 11.3 | 0.00 | 0.00 | 0.00 | 100 | 998.2 |
| 20260505091105 | 41 | 357 | 9.6 | 11.3 | 0.00 | 0.00 | 0.00 | 100 | 998.1 |
| 20260505090605 | 41 | 5 | 6.1 | 10.4 | 0.00 | 0.00 | 0.00 | 100 | 998.0 |
| 20260505090105 | 41 | 351 | 8.7 | 10.4 | 0.00 | 0.00 | 0.00 | 100 | 998.0 |
| 20260505085606 | 41 | 347 | 9.6 | 10.4 | 0.00 | 0.00 | 0.00 | 100 | 998.0 |
| 20260505085106 | 41 | 355 | 6.1 | 8.7 | 0.00 | 0.00 | 0.00 | 100 | 997.9 |
| 20260505084605 | 41 | 4 | 6.1 | 7.0 | 0.00 | 0.00 | 0.00 | 100 | 997.9 |
| 20260505084106 | 41 | 15 | 7.0 | 10.4 | 0.00 | 0.00 | 0.00 | 100 | 997.9 |
| 20260505083606 | 41 | 340 | 8.7 | 9.6 | 0.00 | 0.00 | 0.00 | 100 | 997.9 |
| 20260505083106 | 41 | 347 | 8.7 | 11.3 | 0.00 | 0.00 | 0.00 | 100 | 997.9 |
| 20260505082606 | 41 | 330 | 10.4 | 12.2 | 0.00 | 0.00 | 0.00 | 100 | 997.8 |
| 20260505082106 | 41 | 333 | 10.4 | 11.3 | 0.00 | 0.00 | 0.00 | 100 | 997.8 |
| 20260505081606 | 40 | 340 | 10.4 | 11.3 | 0.00 | 0.00 | 0.00 | 100 | 997.9 |
| 20260505081106 | 40 | 336 | 7.8 | 11.3 | 0.00 | 0.00 | 0.00 | 100 | 997.8 |
| 20260505080606 | 41 | 329 | 9.6 | 11.3 | 0.00 | 0.00 | 0.00 | 100 | 997.8 |
| 20260505080106 | 41 | 351 | 10.4 | 11.3 | 0.00 | 0.00 | 0.00 | 100 | 997.8 |
| 20260505075606 | 41 | 343 | 10.4 | 11.3 | 0.00 | 0.00 | 0.00 | 100 | 997.8 |
| 20260505075106 | 41 | 347 | 9.6 | 11.3 | 0.00 | 0.00 | 0.00 | 100 | 997.7 |
| 20260505074606 | 41 | 351 | 8.7 | 11.3 | 0.00 | 0.00 | 0.00 | 100 | 997.7 |
| 20260505074106 | 41 | 347 | 9.6 | 10.4 | 0.00 | 0.00 | 0.00 | 100 | 997.7 |
| 20260505073606 | 41 | 343 | 9.6 | 11.3 | 0.00 | 0.00 | 0.00 | 100 | 997.6 |
| 20260505073106 | 41 | 340 | 8.7 | 11.3 | 0.00 | 0.00 | 0.00 | 100 | 997.6 |
| 20260505072606 | 41 | 337 | 7.0 | 11.3 | 0.00 | 0.00 | 0.00 | 100 | 997.6 |
| 20260505072106 | 41 | 344 | 10.4 | 11.3 | 0.00 | 0.00 | 0.00 | 100 | 997.5 |
| 20260505071606 | 41 | 351 | 7.8 | 8.7 | 0.00 | 0.00 | 0.00 | 100 | 997.5 |
| 20260505071106 | 41 | 345 | 7.8 | 9.6 | 0.00 | 0.00 | 0.00 | 100 | 997.4 |
| 20260505070606 | 41 | 358 | 6.1 | 7.8 | 0.00 | 0.00 | 0.00 | 100 | 997.3 |
| 20260505070106 | 41 | 355 | 7.0 | 7.8 | 0.00 | 0.00 | 0.00 | 100 | 997.3 |
| 20260505065606 | 41 | 358 | 7.0 | 7.8 | 0.00 | 0.00 | 0.00 | 100 | 997.2 |
| 20260505065106 | 41 | 7 | 6.1 | 7.8 | 0.00 | 0.00 | 0.00 | 100 | 997.1 |
| 20260505064606 | 40 | 348 | 6.1 | 9.6 | 0.00 | 0.00 | 0.00 | 100 | 997.0 |
| 20260505064106 | 40 | 354 | 7.8 | 9.6 | 0.00 | 0.00 | 0.00 | 100 | 996.8 |
| 20260505063606 | 41 | 354 | 7.0 | 9.6 | 0.00 | 0.00 | 0.00 | 100 | 996.7 |
| 20260505063106 | 40 | 354 | 7.8 | 10.4 | 0.00 | 0.00 | 0.00 | 100 | 996.6 |
| 20260505062606 | 40 | 337 | 8.7 | 11.3 | 0.00 | 0.00 | 0.00 | 100 | 996.5 |
| 20260505062106 | 40 | 338 | 7.0 | 11.3 | 0.00 | 0.00 | 0.00 | 100 | 996.4 |
| 20260505061606 | 40 | 341 | 9.6 | 11.3 | 0.00 | 0.00 | 0.00 | 100 | 996.2 |
| 20260505061106 | 40 | 317 | 9.6 | 10.4 | 0.00 | 0.00 | 0.00 | 100 | 996.1 |
| 20260505060606 | 40 | 320 | 9.6 | 10.4 | 0.00 | 0.00 | 0.00 | 100 | 996.0 |
| 20260505060106 | 40 | 327 | 7.8 | 11.3 | 0.00 | 0.00 | 0.00 | 100 | 996.0 |
| 20260505055606 | 40 | 323 | 8.7 | 10.4 | 0.00 | 0.00 | 0.00 | 100 | 995.9 |
| 20260505055106 | 40 | 324 | 8.7 | 11.3 | 0.00 | 0.00 | 0.00 | 100 | 995.9 |
| 20260505054606 | 40 | 354 | 8.7 | 10.4 | 0.00 | 0.00 | 0.00 | 100 | 995.9 |
| 20260505054106 | 40 | 329 | 8.7 | 10.4 | 0.00 | 0.00 | 0.00 | 100 | 995.8 |
| 20260505053606 | 40 | 329 | 8.7 | 10.4 | 0.00 | 0.00 | 0.00 | 100 | 995.8 |
| 20260505053106 | 40 | 326 | 9.6 | 9.6 | 0.00 | 0.00 | 0.00 | 100 | 995.7 |
| 20260505052606 | 40 | 316 | 7.8 | 8.7 | 0.00 | 0.00 | 0.00 | 100 | 995.7 |
| 20260505052106 | 40 | 324 | 7.8 | 9.6 | 0.00 | 0.00 | 0.00 | 100 | 995.7 |
| 20260505051606 | 40 | 313 | 7.8 | 11.3 | 0.00 | 0.00 | 0.00 | 100 | 995.7 |
| 20260505051106 | 40 | 307 | 7.8 | 10.4 | 0.00 | 0.00 | 0.00 | 100 | 995.6 |
| 20260505050606 | 40 | 306 | 7.0 | 9.6 | 0.00 | 0.00 | 0.00 | 100 | 995.6 |
| 20260505050106 | 40 | 312 | 7.8 | 15.6 | 0.00 | 0.00 | 0.00 | 100 | 995.6 |
| 20260505041607 | 40 | 300 | 7.0 | 15.6 | 0.00 | 0.00 | 0.00 | 100 | 995.5 |
| 20260505041107 | 40 | 277 | 8.7 | 14.8 | 0.00 | 0.00 | 0.00 | 100 | 995.5 |
| 20260505040607 | 41 | 270 | 11.3 | 14.8 | 0.00 | 0.00 | 0.00 | 100 | 995.6 |
| 20260505040107 | 42 | 292 | 8.7 | 16.5 | 0.00 | 0.00 | 0.00 | 100 | 995.5 |
| 20260505035607 | 42 | 306 | 8.7 | 13.0 | 0.00 | 0.00 | 0.00 | 100 | 995.6 |
| 20260505035107 | 43 | 312 | 7.8 | 9.6 | 0.00 | 0.00 | 0.00 | 100 | 995.5 |
| 20260505034607 | 44 | 317 | 7.0 | 7.8 | 0.00 | 0.00 | 0.00 | 100 | 995.5 |
| 20260505034107 | 43 | 295 | 6.1 | 9.6 | 0.00 | 0.00 | 0.00 | 100 | 995.5 |
| 20260505033607 | 42 | 285 | 5.2 | 14.8 | 0.00 | 0.00 | 0.00 | 100 | 995.4 |
| 20260505033107 | 42 | 275 | 8.7 | 14.8 | 0.00 | 0.00 | 0.00 | 100 | 995.4 |
| 20260505032607 | 42 | 255 | 9.6 | 14.8 | 0.00 | 0.00 | 0.00 | 100 | 995.4 |
| 20260505032107 | 42 | 243 | 11.3 | 13.9 | 0.00 | 0.00 | 0.00 | 100 | 995.4 |
| 20260505031607 | 41 | 291 | 10.4 | 14.8 | 0.00 | 0.00 | 0.00 | 100 | 995.4 |
| 20260505031107 | 41 | 271 | 5.2 | 14.8 | 0.00 | 0.00 | 0.00 | 100 | 995.4 |
| 20260505030607 | 40 | 282 | 7.0 | 13.9 | 0.00 | 0.00 | 0.00 | 100 | 995.4 |
| 20260505030107 | 38 | 278 | 13.9 | 14.8 | 0.00 | 0.00 | 0.00 | 100 | 995.4 |